Regional Weather Roundup
Issued by NWS

Home | Current Version | Previous Version | Graphics & Text | Print | Product List | Glossary On
Versions: 1 2 3 4 5 6 7 8 9 10 11 12 13 14 15 16 17 18 19 20 21 22 23 24 25 26 27
000
ASUS45 KCYS 030510
RWRWY

WYOMING REGIONAL WEATHER ROUNDUP
NATIONAL WEATHER SERVICE CHEYENNE WY
1000 PM MST FRI DEC 02 2016

NOTE:  "FAIR" INDICATES FEW OR NO CLOUDS BELOW 12,000 FEET
WITH NO SIGNIFICANT WEATHER AND/OR OBSTRUCTIONS TO VISIBILITY.

WYZ001-030600-
YELLOWSTONE NATIONAL PARK

CITY           SKY/WX    TMP DP  RH WIND       PRES   REMARKS
LK YELLOWSTONE   N/A     11   7  84 CALM      30.11S
W YELLOWSTONE  NOT AVBL

$$
WYZ002>013-054>058-071-098>099-030600-
NORTHERN WYOMING

CITY           SKY/WX    TMP DP  RH WIND       PRES   REMARKS
JACKSON        NOT AVBL
CODY           FAIR      29   8  41 W18G26    30.00F WCI  16
GREYBULL       FAIR      28  15  58 CALM      30.06S
WORLAND        FAIR      26  19  74 SE12      30.03F WCI  16
SHERIDAN       FAIR      21  11  65 CALM      29.98F
BUFFALO        FAIR      24   9  52 NW5       29.97F WCI  18
GILLETTE       FAIR      24  18  77 S22       30.02F WCI   9
HULETT         FAIR      32  23  69 SW13      30.06F WCI  22
NEWCASTLE      FAIR      27  19  74 SE8       30.12F WCI  18

$$
WYZ014>020-022>026-101>103-030600-
CENTRAL WYOMING

CITY           SKY/WX    TMP DP  RH WIND       PRES   REMARKS
BIG PINEY      FAIR       7   1  76 N5        30.15R WCI  -2
PINEDALE       FAIR       3   0  85 N10       30.15R WCI -12
DUBOIS         FAIR      14   5  67 N23G31    30.03R WCI  -5
LANDER         FAIR      14   8  77 NW3       30.04F
RIVERTON       FAIR      20  14  77 W9        30.05F WCI   9
CASPER         FAIR      16  11  80 W5        30.08F WCI   9
DOUGLAS        FAIR      19  17  92 NW6       30.11F WCI  11

$$
WYZ021-027>030-104>119-030600-
SOUTHERN WYOMING

CITY           SKY/WX    TMP DP  RH WIND       PRES   REMARKS
EVANSTON       FAIR      14   7  73 S5        30.18R WCI   6
FORT BRIDGER   FAIR      16  11  79 SW10      30.20S WCI   4
ROCK SPRINGS   FAIR      15   9  76 SW12      30.14F WCI   2
DIXON          CLOUDY    12   9  88 CALM      30.21R
RAWLINS        CLOUDY    14   9  80 SW7       30.12F WCI   4
SARATOGA       MOCLDY    12  10  92 S8        30.13S WCI   1
LARAMIE        FAIR       7   4  87 W8        30.06S WCI  -6
CHEYENNE       CLOUDY    24  21  88 SW9       30.11S WCI  14
TORRINGTON     FAIR      25  23  92 SE3       30.15S
PINE BLUFFS    FAIR      21  21 100 CALM      30.15F

$$




USA.gov is the U.S. government's official web portal to all federal, state and local government web resources and services.